Location: Twillingate Astronomical Observatory
(49.6173°N, 54.7580°W)
Time: 11:11:57
(UTC-02:-30)

Amateur Radio Satellites - All Passes

Search period start: 30 October 2014 10:41
Search period end: 31 October 2014 10:41
Location: Twillingate Astronomical Observatory, 49.6173°N, 54.7580°W

Satellite Date Start Highest point End Downlink Frequencies (MHz)
Time Altitude Azimuth
UKube-1 30 Oct 11:00:08 11:04:31 72° 103° (ESE) 11:08:52 145.840 MHz, 145.915 MHz
ZACube-1 30 Oct 11:06:39 11:10:37 37° 97° (E) 11:14:30 437.345 MHz
HO-68 30 Oct 11:18:22 11:25:23 57° 296° (WNW) 11:32:21 435.675 MHz FM
ISS 30 Oct 11:28:02 11:30:56 28° 145° (SE) 11:33:51 145.800 FM
Sapphire 30 Oct 11:28:18 11:33:44 66° 51° (NE) 11:39:08 437.095 MHz 1200 baud AX-25 AFSK
Saudisat 1A 30 Oct 11:32:22 11:34:07 12° 6° (N) 11:35:52 436.775 MHz
Oscar 11 30 Oct 11:36:31 11:40:42 51° 290° (WNW) 11:44:52 145.825 FM, Beacon 2401.500 USB
SO-50 30 Oct 11:41:03 11:44:58 30° 117° (ESE) 11:49:01 436.795 FM
FUNcube-1 30 Oct 11:49:45 11:54:00 80° 285° (WNW) 11:58:10 145.950 - 145.970 MHz USB
PCSat 30 Oct 11:50:11 11:55:39 86° 236° (SW) 12:01:05 145.825 MHz
KITSAT 1 30 Oct 12:00:53 12:08:54 72° 122° (ESE) 12:16:58 435.175 FM
JAS-1B 30 Oct 12:06:22 12:10:08 19° 52° (NE) 12:13:59 435.800 - 435.900 CW/SSB
Oscar 16 30 Oct 12:14:30 12:18:07 20° 57° (ENE) 12:21:44 437.025 USB, Beacon 2401.1428
UOSAT-12 30 Oct 12:34:43 12:36:21 12° 108° (ESE) 12:38:00 437.025 FM, 437.400 FM
UKube-1 30 Oct 12:37:27 12:40:12 17° 302° (WNW) 12:42:57 145.840 MHz, 145.915 MHz
ZACube-1 30 Oct 12:43:23 12:46:52 25° 296° (WNW) 12:50:19 437.345 MHz
Uribyol 2 30 Oct 12:45:26 12:48:48 18° 55° (NE) 12:52:10 436.500 FM
ITAMSAT 1 30 Oct 12:52:48 12:56:22 19° 56° (NE) 12:59:57 435.822 SSB
AO-7 30 Oct 12:56:57 12:59:50 12° 26° (NNE) 13:02:43 29.400 - 29.500 MHz
AO-Echo 30 Oct 12:59:17 13:03:18 24° 59° (ENE) 13:07:24 ?
ISS 30 Oct 13:04:04 13:07:25 82° 345° (NNW) 13:10:46 145.800 FM
Oscar 19 30 Oct 13:05:15 13:10:07 45° 67° (ENE) 13:15:00 437.125 CW, 437.150 USB
HO-68 30 Oct 13:07:36 13:11:40 16° 318° (NW) 13:15:43 435.675 MHz FM
Saudisat 1A 30 Oct 13:11:42 13:15:15 23° 30° (NNE) 13:18:48 436.775 MHz
Sapphire 30 Oct 13:12:24 13:16:45 25° 251° (WSW) 13:21:04 437.095 MHz 1200 baud AX-25 AFSK
SO-50 30 Oct 13:20:55 13:25:21 49° 318° (NW) 13:29:56 436.795 FM
FUNcube-1 30 Oct 13:28:19 13:29:39 11° 305° (NW) 13:30:58 145.950 - 145.970 MHz USB
PCSat 30 Oct 13:35:07 13:38:16 16° 255° (WSW) 13:41:25 145.825 MHz
AO-27 30 Oct 13:38:24 13:43:15 40° 65° (ENE) 13:48:08 436.795 MHz FM
Gurwin Techsat 1B 30 Oct 13:47:22 13:51:50 28° 61° (ENE) 13:56:19 435.225 FM
Oscar 16 30 Oct 13:51:47 13:56:56 76° 256° (WSW) 14:02:06 437.025 USB, Beacon 2401.1428
JAS-1B 30 Oct 13:54:21 14:00:05 85° 254° (WSW) 14:05:55 435.800 - 435.900 CW/SSB
TMSAT-1 30 Oct 13:54:48 13:59:05 25° 60° (ENE) 14:03:22 436.925 FM
KITSAT 1 30 Oct 13:57:20 14:04:55 42° 326° (NW) 14:12:32 435.175 FM
UOSAT-12 30 Oct 14:11:01 14:15:40 73° 127° (SE) 14:20:24 437.025 FM, 437.400 FM
Uribyol 2 30 Oct 14:22:21 14:27:36 89° 254° (WSW) 14:32:53 436.500 FM
ITAMSAT 1 30 Oct 14:30:01 14:35:15 82° 255° (WSW) 14:40:32 435.822 SSB
AO-Echo 30 Oct 14:36:44 14:41:40 59° 259° (W) 14:46:49 ?
ISS 30 Oct 14:40:59 14:44:18 59° 4° (N) 14:47:37 145.800 FM
AO-7 30 Oct 14:43:00 14:50:10 34° 51° (NE) 14:57:21 29.400 - 29.500 MHz
Oscar 19 30 Oct 14:45:12 14:49:38 29° 266° (W) 14:54:06 437.125 CW, 437.150 USB
Saudisat 1A 30 Oct 14:50:55 14:55:22 85° 231° (SW) 14:59:48 436.775 MHz
Uosat F 30 Oct 14:51:23 14:54:01 14° 53° (NE) 14:56:39 435.120 FM
SO-50 30 Oct 15:03:54 15:07:01 17° 341° (NNW) 15:10:10 436.795 FM
AO-27 30 Oct 15:18:08 15:22:51 34° 264° (W) 15:27:36 436.795 MHz FM
Gurwin Techsat 1B 30 Oct 15:26:23 15:31:33 52° 260° (W) 15:36:46 435.225 FM
TMSAT-1 30 Oct 15:33:25 15:38:39 59° 259° (W) 15:43:55 436.925 FM
Oscar 16 30 Oct 15:35:27 15:37:11 12° 275° (W) 15:38:54 437.025 USB, Beacon 2401.1428
JAS-1B 30 Oct 15:49:24 15:51:54 13° 276° (W) 15:54:25 435.800 - 435.900 CW/SSB
JAS-2 30 Oct 15:50:22 15:55:10 21° 49° (NE) 16:00:19 435.800 - 435.900 CW/SSB, 435.910 FM
UOSAT-12 30 Oct 15:52:15 15:56:17 27° 328° (NNW) 16:00:21 437.025 FM, 437.400 FM
KITSAT 1 30 Oct 15:56:16 16:02:42 25° 354° (N) 16:09:08 435.175 FM
Uribyol 2 30 Oct 16:05:04 16:07:50 14° 273° (W) 16:10:37 436.500 FM
ITAMSAT 1 30 Oct 16:13:14 16:15:35 13° 274° (W) 16:17:57 435.822 SSB
ISS 30 Oct 16:17:44 16:21:04 65° 204° (SSW) 16:24:23 145.800 FM
Uosat F 30 Oct 16:26:58 16:32:00 77° 72° (ENE) 16:37:04 435.120 FM
Saudisat 1A 30 Oct 16:32:11 16:34:15 13° 250° (WSW) 16:36:19 436.775 MHz
AO-7 30 Oct 16:34:07 16:42:23 74° 253° (WSW) 16:50:44 29.400 - 29.500 MHz
SO-50 30 Oct 16:47:02 16:49:26 14° 6° (N) 16:51:51 436.795 FM
Hamsat 30 Oct 16:47:26 16:50:19 18° 61° (ENE) 16:53:11 145.90 MHz
JAS-2 30 Oct 17:32:39 17:39:03 80° 72° (ENE) 17:46:22 435.800 - 435.900 CW/SSB, 435.910 FM
UOSAT-12 30 Oct 17:35:30 17:37:58 14° 352° (N) 17:40:27 437.025 FM, 437.400 FM
KITSAT 1 30 Oct 17:53:48 18:00:52 32° 24° (NNE) 18:07:55 435.175 FM
ISS 30 Oct 17:55:15 17:57:17 15° 222° (SW) 17:59:18 145.800 FM
Uosat F 30 Oct 18:08:12 18:11:23 17° 271° (W) 18:14:35 435.120 FM
Hamsat 30 Oct 18:21:47 18:25:54 56° 260° (W) 18:30:01 145.90 MHz
HO-68 30 Oct 18:21:49 18:24:38 13° 37° (NE) 18:27:26 435.675 MHz FM
SO-67 30 Oct 18:22:23 18:24:56 20° 65° (ENE) 18:27:29 435.3500 MHz FM
OPAL 30 Oct 18:26:31 18:31:22 51° 103° (ESE) 18:36:10 ?
SO-50 30 Oct 18:27:39 18:31:37 25° 30° (NNE) 18:35:38 436.795 FM
AO-7 30 Oct 18:31:32 18:36:39 18° 275° (W) 18:41:50 29.400 - 29.500 MHz
AO-40 30 Oct 18:34:41 00:03:57 35° 183° (S) 06:36:53 Beacon 2401.320
STRAND 1 30 Oct 18:43:44 18:46:24 14° 87° (E) 18:49:03 ?
UOSAT-12 30 Oct 19:17:01 19:20:00 16° 17° (NNE) 19:22:59 437.025 FM, 437.400 FM
JAS-2 30 Oct 19:20:07 19:25:04 23° 275° (W) 19:30:29 435.800 - 435.900 CW/SSB, 435.910 FM
RS-15 30 Oct 19:45:15 19:50:35 15° 94° (E) 19:55:53 29.354 - 29.394 USB, Beacon 29.352 USB
KITSAT 1 30 Oct 19:49:31 19:57:39 75° 49° (NE) 20:05:43 435.175 FM
SO-67 30 Oct 19:54:35 19:57:43 33° 263° (W) 20:00:53 435.3500 MHz FM
HO-68 30 Oct 20:03:54 20:10:34 43° 60° (ENE) 20:17:16 435.675 MHz FM
OPAL 30 Oct 20:05:54 20:10:00 27° 302° (WNW) 20:14:06 ?
SO-50 30 Oct 20:07:56 20:12:47 88° 231° (SW) 20:17:41 436.795 FM
STRAND 1 30 Oct 20:21:09 20:26:21 89° 106° (ESE) 20:31:30 ?
UKube-1 30 Oct 20:25:41 20:28:17 16° 57° (ENE) 20:30:54 145.840 MHz, 145.915 MHz
UOSAT-12 30 Oct 20:56:51 21:01:22 41° 40° (NE) 21:05:49 437.025 FM, 437.400 FM
Oscar 11 30 Oct 21:00:11 21:03:49 27° 64° (ENE) 21:07:27 145.825 FM, Beacon 2401.500 USB
FUNcube-1 30 Oct 21:15:12 21:18:23 19° 61° (ENE) 21:21:32 145.950 - 145.970 MHz USB
KITSAT 1 30 Oct 21:45:33 21:52:26 32° 252° (WSW) 21:59:18 435.175 FM
RS-15 30 Oct 21:49:43 22:00:23 61° 118° (ESE) 22:11:03 29.354 - 29.394 USB, Beacon 29.352 USB
SO-50 30 Oct 21:49:52 21:52:42 16° 250° (WSW) 21:55:31 436.795 FM
HO-68 30 Oct 21:51:21 21:58:14 48° 261° (W) 22:05:11 435.675 MHz FM
UKube-1 30 Oct 21:59:34 22:03:56 76° 256° (WSW) 22:08:20 145.840 MHz, 145.915 MHz
STRAND 1 30 Oct 22:01:35 22:04:52 17° 305° (NW) 22:08:07 ?
ZACube-1 30 Oct 22:06:51 22:11:15 54° 71° (ENE) 22:15:35 437.345 MHz
MaSat-1 30 Oct 22:29:03 22:32:21 28° 113° (ESE) 22:35:23 437.345 MHz
Oscar 11 30 Oct 22:35:51 22:39:52 37° 263° (W) 22:43:54 145.825 FM, Beacon 2401.500 USB
UOSAT-12 30 Oct 22:37:08 22:41:32 39° 240° (WSW) 22:45:51 437.025 FM, 437.400 FM
FUNcube-1 30 Oct 22:49:55 22:54:23 60° 259° (W) 22:58:47 145.950 - 145.970 MHz USB
Oscar 10/S400 30 Oct 23:24:08 00:16:37 27° 222° (SW) 03:51:01 145.825 - 145.975 CW/USB, Beacon 145.810 USB
ZACube-1 30 Oct 23:44:41 23:47:57 20° 269° (W) 23:51:12 437.345 MHz
RS-15 31 Oct 00:02:19 00:13:01 56° 325° (NW) 00:23:52 29.354 - 29.394 USB, Beacon 29.352 USB
MaSat-1 31 Oct 00:04:28 00:07:45 29° 309° (NW) 00:10:44 437.345 MHz
Oscar 19 31 Oct 01:14:55 01:16:09 11° 84° (E) 01:17:22 437.125 CW, 437.150 USB
JAS-1B 31 Oct 01:32:05 01:37:33 23° 91° (E) 01:43:42 435.800 - 435.900 CW/SSB
Oscar 16 31 Oct 01:59:26 02:03:48 28° 94° (E) 02:08:08 437.025 USB, Beacon 2401.1428
Sapphire 31 Oct 02:15:39 02:19:48 23° 108° (ESE) 02:23:59 437.095 MHz 1200 baud AX-25 AFSK
RS-15 31 Oct 02:18:17 02:28:12 37° 358° (N) 02:38:20 29.354 - 29.394 USB, Beacon 29.352 USB
Uribyol 2 31 Oct 02:31:19 02:35:29 24° 92° (E) 02:39:36 436.500 FM
PCSat 31 Oct 02:36:28 02:41:20 35° 113° (ESE) 02:46:15 145.825 MHz
ITAMSAT 1 31 Oct 02:38:59 02:43:20 26° 93° (E) 02:47:39 435.822 SSB
AO-Echo 31 Oct 02:39:31 02:44:24 35° 95° (E) 02:49:13 ?
Oscar 19 31 Oct 02:51:17 02:56:25 73° 103° (ESE) 03:01:32 437.125 CW, 437.150 USB
JAS-1B 31 Oct 03:21:54 03:28:44 83° 288° (WNW) 03:36:58 435.800 - 435.900 CW/SSB
AO-27 31 Oct 03:25:58 03:31:11 63° 102° (ESE) 03:36:21 436.795 MHz FM
Gurwin Techsat 1B 31 Oct 03:37:58 03:43:06 46° 99° (E) 03:48:11 435.225 FM
Oscar 16 31 Oct 03:38:28 03:43:22 47° 292° (WNW) 03:48:16 437.025 USB, Beacon 2401.1428
TMSAT-1 31 Oct 03:44:48 03:49:49 40° 97° (E) 03:54:47 436.925 FM
Sapphire 31 Oct 03:57:21 04:02:45 70° 308° (NW) 04:08:12 437.095 MHz 1200 baud AX-25 AFSK
OPAL 31 Oct 04:08:12 04:12:21 26° 58° (ENE) 04:16:28 ?
Uribyol 2 31 Oct 04:10:12 04:15:19 56° 291° (WNW) 04:20:22 436.500 FM
ITAMSAT 1 31 Oct 04:18:02 04:23:07 52° 292° (WNW) 04:28:09 435.822 SSB
AO-Echo 31 Oct 04:18:15 04:23:12 40° 294° (WNW) 04:28:07 ?
PCSat 31 Oct 04:19:24 04:24:39 48° 314° (NW) 04:29:56 145.825 MHz
AO-7 31 Oct 04:31:03 04:38:10 30° 93° (E) 04:45:14 29.400 - 29.500 MHz
Uosat F 31 Oct 04:31:23 04:34:39 17° 89° (E) 04:37:55 435.120 FM
Oscar 19 31 Oct 04:31:35 04:35:15 20° 303° (WNW) 04:38:56 437.125 CW, 437.150 USB
RS-15 31 Oct 04:32:55 04:43:37 51° 31° (NNE) 04:54:40 29.354 - 29.394 USB, Beacon 29.352 USB
JAS-2 31 Oct 04:39:39 04:42:48 13° 78° (ENE) 04:45:56 435.800 - 435.900 CW/SSB, 435.910 FM
AO-27 31 Oct 05:06:13 05:10:18 24° 302° (WNW) 05:14:21 436.795 MHz FM
JAS-1B 31 Oct 05:13:50 05:18:42 22° 306° (NW) 05:24:08 435.800 - 435.900 CW/SSB
Gurwin Techsat 1B 31 Oct 05:18:16 05:22:54 31° 298° (WNW) 05:27:31 435.225 FM
TMSAT-1 31 Oct 05:24:54 05:29:40 35° 296° (WNW) 05:34:25 436.925 FM
Sapphire 31 Oct 05:43:05 05:47:10 21° 331° (NNW) 05:51:15 437.095 MHz 1200 baud AX-25 AFSK
OPAL 31 Oct 05:45:57 05:50:57 55° 257° (WSW) 05:55:56 ?
Uribyol 2 31 Oct 05:52:12 05:53:43 11° 311° (NW) 05:55:15 436.500 FM
ITAMSAT 1 31 Oct 06:00:34 06:01:29 10° 312° (NW) 06:02:24 435.822 SSB
STRAND 1 31 Oct 06:03:09 06:07:42 33° 63° (ENE) 06:12:16 ?
Hamsat 31 Oct 06:03:34 06:06:36 19° 91° (E) 06:09:39 145.90 MHz
PCSat 31 Oct 06:05:53 06:09:24 17° 338° (NNW) 06:12:56 145.825 MHz
Uosat F 31 Oct 06:08:57 06:14:01 75° 288° (WNW) 06:19:03 435.120 FM
JAS-2 31 Oct 06:21:46 06:29:30 57° 99° (E) 06:37:04 435.800 - 435.900 CW/SSB, 435.910 FM
AO-7 31 Oct 06:23:23 06:31:42 75° 294° (WNW) 06:40:00 29.400 - 29.500 MHz
MaSat-1 31 Oct 06:34:44 06:36:02 13° 43° (NE) 06:37:18 437.345 MHz
Saudisat 1A 31 Oct 06:40:14 06:44:31 55° 124° (SE) 06:48:51 436.775 MHz
RS-15 31 Oct 06:45:42 06:56:44 72° 238° (WSW) 07:08:14 29.354 - 29.394 USB, Beacon 29.352 USB
SO-67 31 Oct 07:14:30 07:16:04 13° 89° (E) 07:17:38 435.3500 MHz FM
Sapphire 31 Oct 07:30:33 07:32:46 12° 357° (N) 07:34:59 437.095 MHz 1200 baud AX-25 AFSK
Hamsat 31 Oct 07:38:45 07:42:50 50° 289° (WNW) 07:46:56 145.90 MHz
STRAND 1 31 Oct 07:41:55 07:46:47 42° 262° (W) 07:51:42 ?
Uosat F 31 Oct 07:49:25 07:51:59 14° 308° (NW) 07:54:33 435.120 FM
PCSat 31 Oct 07:52:54 07:55:10 12° 4° (N) 07:57:25 145.825 MHz
JAS-2 31 Oct 08:07:06 08:14:17 42° 299° (WNW) 08:21:26 435.800 - 435.900 CW/SSB, 435.910 FM
MaSat-1 31 Oct 08:09:16 08:11:39 34° 245° (WSW) 08:13:53 437.345 MHz
AO-7 31 Oct 08:17:06 08:23:16 24° 317° (NW) 08:29:26 29.400 - 29.500 MHz
Saudisat 1A 31 Oct 08:20:28 08:24:21 30° 325° (NW) 08:28:16 436.775 MHz
SO-67 31 Oct 08:45:59 08:49:22 52° 287° (WNW) 08:52:43 435.3500 MHz FM
RS-15 31 Oct 08:59:43 09:07:07 21° 261° (W) 09:14:43 29.354 - 29.394 USB, Beacon 29.352 USB
HO-68 31 Oct 09:14:12 09:20:15 28° 92° (E) 09:26:16 435.675 MHz FM
Sapphire 31 Oct 09:14:51 09:18:30 18° 24° (NNE) 09:22:09 437.095 MHz 1200 baud AX-25 AFSK
PCSat 31 Oct 09:36:31 09:40:43 22° 30° (NNE) 09:44:54 145.825 MHz
UKube-1 31 Oct 09:44:53 09:47:06 14° 89° (E) 09:49:18 145.840 MHz, 145.915 MHz
JAS-2 31 Oct 09:54:15 09:57:23 13° 320° (NW) 10:00:31 435.800 - 435.900 CW/SSB, 435.910 FM
Saudisat 1A 31 Oct 10:03:12 10:05:17 13° 348° (NNW) 10:07:23 436.775 MHz
Oscar 11 31 Oct 10:18:56 10:22:42 28° 95° (E) 10:26:27 145.825 FM, Beacon 2401.500 USB
KITSAT 1 31 Oct 10:24:09 10:30:29 26° 105° (ESE) 10:36:48 435.175 FM
FUNcube-1 31 Oct 10:35:28 10:38:28 19° 91° (E) 10:41:26 145.950 - 145.970 MHz USB
